Regional Weather Roundup
Issued by NWS

Home | Current Version | Previous Version | Graphics & Text | Print | Product List | Glossary On
Versions: 1 2 3 4 5 6 7 8 9 10 11 12 13 14 15 16 17 18 19 20 21 22 23 24 25 26 27 28 29 30 31 32 33 34 35 36 37 38 39 40 41 42 43 44 45 46 47 48 49 50
000
ASUS43 KDMX 071206
RWRIA

WEATHER ROUNDUP FOR IOWA
NATIONAL WEATHER SERVICE DES MOINES IA
600 AM CST WED DEC 07 2016

NOTE: "FAIR" INDICATES FEW OR NO CLOUDS BELOW 12,000 FEET WITH NO
SIGNIFICANT WEATHER AND/OR OBSTRUCTIONS TO VISIBILITY.

* - THESE STATIONS ARE NOT NWS STATIONS...THUS NOT UNDER NWS
QUALITY CONTROL.  THEY ALSO DO NOT REPORT WEATHER SUCH
AS PRECIPITATION OR FOG.

IAZ001>003-012>014-020>022-031>034-043>046-071300-
   NORTHWEST IOWA

CITY           SKY/WX    TMP DP  RH WIND       PRES   REMARKS
CARROLL *      PTCLDY    14   9  79 W21G28    30.17R WCI  -4
CHEROKEE *     CLEAR     11   5  75 NW8G17    30.19R WCI   0
DENISON *      PTCLDY    14   9  79 NW10G20   30.18R WCI   1
LE MARS *      PTCLDY    12   7  79 NW14      30.21S WCI  -3
ORANGE CITY *  CLEAR     10   5  79 W25G31    30.15R WCI -10
SHELDON *      CLEAR      9   5  85 W18G28    30.12S WCI -10
SIOUX CITY     CLOUDY    15   6  67 NW14G24   30.22S WCI   0
6HR MIN TEMP:  15; 6HR MAX TEMP:  18;

SPENCER        CLEAR     10   5  80 W31       30.13R WCI -13
6HR MIN TEMP:  10; 6HR MAX TEMP:  13;

STORM LAKE *   CLOUDY    10   5  79 W18G28    30.14S WCI  -8
$$

IAZ055>058-069>071-079>083-090>094-071300-
   SOUTHWEST IOWA

CITY           SKY/WX    TMP DP  RH WIND       PRES   REMARKS
ATLANTIC *     PTCLDY    16  10  79 NW10      30.20R WCI   3
AUDUBON *      CLEAR     16   9  73 NW8       30.17S WCI   5
CLARINDA *     CLOUDY    19  10  68 N13       30.23R WCI   7
COUNCIL BLFS * CLOUDY    16   9  73 NW13G18   30.21R WCI   2
CRESTON *      CLOUDY    18  10  73 NW14      30.17R WCI   4
HARLAN  *      CLOUDY    16   9  73 NW9       30.23R WCI   4
LAMONI         CLOUDY    21  11  65 NW12      30.16R WCI   9
6HR MIN TEMP:  21; 6HR MAX TEMP:  25;

RED OAK *      MOCLDY    18  10  73 NW12      30.21S WCI   5
SHENANDOAH *   CLOUDY    21  12  68 NW8       30.24R WCI  12
$$

IAZ047>049-059>061-072>074-084-071300-
   CENTRAL IOWA

CITY           SKY/WX    TMP DP  RH WIND       PRES   REMARKS
AMES           CLEAR     17  11  77 W18G25    30.16R WCI   1
6HR MIN TEMP:  17; 6HR MAX TEMP:  21;

ANKENY *       CLOUDY    18  10  73 W14G22    30.18R WCI   4
BOONE *        CLOUDY    16   9  73 W16       30.14R WCI   0
CHARITON *       N/A     21  14  73 W6        30.16S WCI  14
DES MOINES     MOCLDY    20  10  65 NW14      30.17R WCI   7
6HR MIN TEMP:  20; 6HR MAX TEMP:  24;

GRINNELL*      PTCLDY    19  13  79 W12G17    30.14R WCI   6
KNOXVILLE *    MOCLDY    21  12  68 NW10      30.15S WCI  10
MARSHALLTOWN   CLEAR     17  11  77 W18G24    30.13R WCI   1
6HR MIN TEMP:  17; 6HR MAX TEMP:  20;

NEWTON *       PTCLDY    18  12  79 W13G20    30.14S WCI   4
PELLA *        PTCLDY    21  13  70 NW10      30.18R WCI  10
PERRY *          N/A     17  12  82 W14G20    30.17S WCI   3
$$

IAZ004>006-015-016-023>025-035-036-071300-
   NORTH CENTRAL IOWA

CITY           SKY/WX    TMP DP  RH WIND       PRES   REMARKS
ALGONA *       PTCLDY    12   9  85 W17G24    30.11R WCI  -5
CLARION *      CLEAR     14   9  79 W22G28    30.12R WCI  -4
ESTHERVILLE    CLEAR     10   5  80 W22G29    30.09R WCI -10
6HR MIN TEMP:  10; 6HR MAX TEMP:  13;

FORT DODGE *   CLOUDY    14   5  67 W13G18    30.15R WCI   0
MASON CITY     CLEAR     13   7  77 W20       30.10R WCI  -5
6HR MIN TEMP:  13; 6HR MAX TEMP:  16;

FOREST CITY *    N/A     14   9  79 W14G23    30.08R WCI  -1
WEBSTER CITY * CLOUDY    14  10  85 W15G25    30.12S WCI  -1
IOWA FALLS *     N/A     16  11  80 W23G29    30.12S WCI  -2
$$

IAZ007>011-017>019-026>030-037>042-050>054-066-071300-
   NORTHEAST IOWA

CITY           SKY/WX    TMP DP  RH WIND       PRES   REMARKS
CEDAR RAPIDS   PTCLDY    18  14  84 W13       30.12R WCI   5
6HR MIN TEMP:  18; 6HR MAX TEMP:  22;

CHARLES CITY * CLOUDY    14   9  79 W15G22    30.08R WCI  -1
CLINTON *      CLOUDY    22  17  81 W17       30.11R WCI   8
DECORAH *      CLOUDY    14  10  85 SW9G22    30.03R WCI   2
DUBUQUE        CLOUDY    18  13  80 W16G22    30.07R WCI   3
6HR MIN TEMP:  18; 6HR MAX TEMP:  21; 6HR PCP: TRACE;

MONTICELLO *   MOCLDY    19  12  73 MISG      30.10R
OELWEIN *      PTCLDY    16  10  79 W17       30.09R WCI   0
WATERLOO       CLEAR     16  10  77 W14       30.11R WCI   2
6HR MIN TEMP:  16; 6HR MAX TEMP:  20;

$$

IAZ064-065-067-068-078-071300-
   EAST CENTRAL IOWA

CITY           SKY/WX    TMP DP  RH WIND       PRES   REMARKS
DAVENPORT      CLOUDY    22  16  78 W16       30.11R WCI   8
6HR MIN TEMP:  22; 6HR MAX TEMP:  26;

IOWA CITY      CLOUDY    22  14  71 W13       30.15R WCI  10
6HR MIN TEMP:  22; 6HR MAX TEMP:  26;

MUSCATINE *    CLOUDY    25  16  68 W12       30.15R WCI  14
QUAD CITIES    PTCLDY    25  15  66 W9        30.11R WCI  15
6HR MIN TEMP:  25; 6HR MAX TEMP:  28;

$$

IAZ062-063-075>077-085>089-095>099-071300-
   SOUTHEAST IOWA

CITY           SKY/WX    TMP DP  RH WIND       PRES   REMARKS
BURLINGTON     CLOUDY    26  16  65 W9        30.14R WCI  17
6HR MIN TEMP:  26; 6HR MAX TEMP:  29;

FAIRFIELD *    CLOUDY    23  14  68 W12       30.15R WCI  12
FORT MADISON * CLOUDY    27  16  63 W8        30.15S WCI  18
KEOKUK *       CLOUDY    28  16  59 W6        30.15S WCI  22
OSKALOOSA *      N/A     22  16  78 W12       30.16R WCI  10
CENTERVILLE *    N/A     23  14  68 W9        30.17S WCI  13
OTTUMWA        CLOUDY    23  13  65 W13       30.16R WCI  11
6HR MIN TEMP:  23; 6HR MAX TEMP:  27;

WASHINGTON *   MOCLDY    23  18  80 W12       30.16R WCI  12
$$

ABBREVIATIONS USED IN REMARKS
   TC - TEMPERATURES IN CELSIUS
  WCI - WIND CHILL INDEX
   HX - HEAT INDEX
  VSB - VISIBILITY
$$




USA.gov is the U.S. government's official web portal to all federal, state and local government web resources and services.